Flag for Canada Weather past 2 weeks in Kuujjuaq, Quebec, Canada

Now
57 °F

Partly sunny.


Feels Like: 55 °F
Forecast: 47 / 64 °F
Wind: 12 mph from Southeast

Location: Kuujjuaq

Current Time: Sep 2, 2014 at 10:57:15 AM

Latest Report: Sep 2, 2014 at 10:00 AM


Visibility: 15 mi

Pressure: 29.40 "Hg

Humidity: 67%

Dew point: 46 °F

Location of KuujjuaqLocation

Historic Weather in Kuujjuaq — Graph

°F

Kuujjuaq temperature yesterday

Maximum temperature yesterday: 55 °F (at 5:00 PM)
Minimum temperature yesterday: 45 °F (at 1:00 AM)
Average temperature yesterday: 50 °F

Past Weeks' High & Low Weather Summary

 TemperatureHumidityPressure
High86 °F (Aug 23, 12:00 PM)100% (Aug 19, 1:00 AM)30.36 "Hg (Aug 19, 1:00 AM)
Low36 °F (Aug 27, 2:00 AM)31% (Aug 23, 1:00 PM)29.46 "Hg (Sep 2, 9:00 AM)
Average54 °F78%29.96 "Hg
* Reported Aug 18 9:00 AM — Sep 2 9:00 AM, Kuujjuaq, Weather by CustomWeather, © 2014

Note: Actual official high and low records may vary slightly from our data, if they occured in-between our weather recording intervals... More about our weather records

Advertising

Kuujjuaq weather history for previous 24 hours

 ConditionsComfort  
Time TempWeatherWind HumidityBarometerVisibility
9:00 AM
Sep 2
55 °FBroken clouds.10 mph77%29.46 "Hg15 mi
8:00 AM50 °FMostly cloudy.9 mph88%29.52 "Hg15 mi
7:00 AM50 °FMostly cloudy.9 mph82%29.57 "Hg15 mi
6:00 AM48 °FMostly cloudy.10 mph87%29.61 "Hg15 mi
5:00 AM48 °FOvercast.9 mph87%29.66 "Hg15 mi
4:00 AM48 °FOvercast.7 mph82%29.70 "Hg15 mi
3:00 AM50 °FOvercast.8 mph76%29.74 "Hg15 mi
2:00 AM50 °FOvercast.6 mph76%29.78 "Hg15 mi
1:00 AM50 °FOvercast.6 mph76%29.81 "Hg15 mi
12:00 AM50 °FOvercast.6 mph76%29.83 "Hg15 mi
11:00 PM
Sep 1
50 °FOvercast.2 mph82%29.85 "Hg15 mi
10:00 PM48 °FOvercast.No wind82%29.88 "Hg15 mi
9:00 PM50 °FPartly cloudy.3 mph82%29.88 "Hg15 mi
8:00 PM52 °FPartly sunny.5 mph77%29.90 "Hg15 mi
7:00 PM54 °FPartly sunny.No wind77%29.90 "Hg15 mi
6:00 PM54 °FPartly sunny.6 mph67%29.90 "Hg15 mi
5:00 PM55 °FPartly sunny.3 mph63%29.92 "Hg15 mi
4:00 PM54 °FPartly sunny.5 mph63%29.92 "Hg15 mi
3:00 PM54 °FMostly cloudy.7 mph63%29.92 "Hg15 mi
2:00 PM54 °FMostly cloudy.9 mph63%29.93 "Hg15 mi
1:00 PM52 °FMostly cloudy.7 mph72%29.93 "Hg15 mi
12:00 PM52 °FSprinkles. Mostly cloudy.10 mph72%29.94 "Hg12 mi
11:00 AM52 °FScattered showers. Mostly cloudy.9 mph62%29.94 "Hg15 mi
10:00 AM48 °FMostly cloudy.9 mph76%29.95 "Hg15 mi
Weather by CustomWeather, © 2014

See weather overviewHow to use our weather pages